Location: Ocean City
(38.3360°N, 75.0850°W)
Time: 20:59:40
(UTC-04:00)

Max Valier Satellite - Visible Passes

Search period start: 21 May 2019 00:00
Search period end: 31 May 2019 00:00
Orbit: 492 x 508 km, 97.4° (Epoch: 21 May)

Date Brightness Start Highest point End Pass type
(mag) Time Alt. Az. Time Alt. Az. Time Alt. Az.
21 May ? 21:16:32 17° ESE 21:18:14 24° ENE 21:21:14 10° NNE visible
21 May ? 22:51:12 17° WSW 22:51:56 18° W 22:54:34 10° NW visible
22 May ? 20:56:43 10° E 20:58:43 14° ENE 21:00:45 10° NE visible
22 May ? 22:31:16 28° SW 22:32:10 32° W 22:35:31 10° NNW visible
23 May ? 22:11:20 40° SSW 22:12:27 61° W 22:16:06 10° NNW visible
24 May ? 21:51:25 36° SSE 21:52:47 70° ENE 21:56:28 10° N visible
25 May ? 21:31:29 23° SE 21:33:10 37° ENE 21:36:36 10° N visible
25 May ? 23:06:09 11° WSW 23:07:04 12° W 23:08:32 10° WNW visible
26 May ? 21:11:33 14° ESE 21:13:37 21° ENE 21:16:28 10° NNE visible
26 May ? 22:46:13 19° WSW 22:47:15 21° W 22:50:07 10° NW visible
27 May ? 20:52:26 10° E 20:54:06 13° ENE 20:55:47 10° NE visible
27 May ? 22:26:17 29° SW 22:27:29 37° W 22:30:57 10° NNW visible
28 May ? 22:06:21 35° S 22:07:46 72° W 22:11:28 10° NNW visible
29 May ? 21:46:26 29° SE 21:48:07 60° ENE 21:51:46 10° N visible
30 May ? 21:26:29 19° SE 21:28:30 32° ENE 21:31:50 10° N visible
30 May ? 23:01:10 12° WSW 23:02:21 14° W 23:04:18 10° WNW visible
